Year,Month,Day,Hour,Minute,Value (Times are PST for temperature in C)
2008,10,14,00,00,8.50
2008,10,14,00,01,8.50
2008,10,14,00,02,8.40
2008,10,14,00,03,8.40
2008,10,14,00,04,8.30
2008,10,14,00,05,8.30
2008,10,14,00,06,8.30
2008,10,14,00,07,8.20
2008,10,14,00,08,8.20
2008,10,14,00,09,8.20
2008,10,14,00,10,8.20
2008,10,14,00,11,8.20
2008,10,14,00,12,8.20
2008,10,14,00,13,8.20
2008,10,14,00,14,8.20
2008,10,14,00,15,8.20
2008,10,14,00,16,8.20
2008,10,14,00,17,8.20
2008,10,14,00,18,8.30
2008,10,14,00,19,8.30
2008,10,14,00,20,8.30
2008,10,14,00,21,8.30
2008,10,14,00,22,8.30
2008,10,14,00,23,8.30
2008,10,14,00,24,8.40
2008,10,14,00,25,8.40
2008,10,14,00,26,8.40
2008,10,14,00,27,8.40
2008,10,14,00,28,8.40
2008,10,14,00,29,8.40
2008,10,14,00,30,8.30
2008,10,14,00,31,8.30
2008,10,14,00,32,8.30
2008,10,14,00,33,8.30
2008,10,14,00,34,8.30
2008,10,14,00,35,8.20
2008,10,14,00,36,8.20
2008,10,14,00,37,8.20
2008,10,14,00,38,8.20
2008,10,14,00,39,8.20
2008,10,14,00,40,8.10
2008,10,14,00,41,8.10
2008,10,14,00,42,8.10
2008,10,14,00,43,8.10
2008,10,14,00,44,8.00
2008,10,14,00,45,8.00
2008,10,14,00,46,8.00
2008,10,14,00,47,7.90
2008,10,14,00,48,7.90
2008,10,14,00,49,7.90
2008,10,14,00,50,7.90
2008,10,14,00,51,8.00
2008,10,14,00,52,8.00
2008,10,14,00,53,8.10
2008,10,14,00,54,8.10
2008,10,14,00,55,8.10
2008,10,14,00,56,8.20
2008,10,14,00,57,8.20
2008,10,14,00,58,8.20
2008,10,14,00,59,8.20
2008,10,14,01,00,8.20
2008,10,14,01,01,8.20
2008,10,14,01,02,8.20
2008,10,14,01,03,8.20
2008,10,14,01,04,8.20
2008,10,14,01,05,8.10
2008,10,14,01,06,8.10
2008,10,14,01,07,8.10
2008,10,14,01,08,8.10
2008,10,14,01,09,8.10
2008,10,14,01,10,8.00
2008,10,14,01,11,8.00
2008,10,14,01,12,8.00
2008,10,14,01,13,8.00
2008,10,14,01,14,7.90
2008,10,14,01,15,7.90
2008,10,14,01,16,7.90
2008,10,14,01,17,7.90
2008,10,14,01,18,7.80
2008,10,14,01,19,7.90
2008,10,14,01,20,7.90
2008,10,14,01,21,7.90
2008,10,14,01,22,7.90
2008,10,14,01,23,7.90
2008,10,14,01,24,7.90
2008,10,14,01,25,7.90
2008,10,14,01,26,7.90
2008,10,14,01,27,7.90
2008,10,14,01,28,7.90
2008,10,14,01,29,7.90
2008,10,14,01,30,7.90
2008,10,14,01,31,7.90
2008,10,14,01,32,7.90
2008,10,14,01,33,7.90
2008,10,14,01,34,7.90
2008,10,14,01,35,7.90
2008,10,14,01,36,7.80
2008,10,14,01,37,7.80
2008,10,14,01,38,7.80
2008,10,14,01,39,7.80
2008,10,14,01,40,7.80
2008,10,14,01,41,7.80
2008,10,14,01,42,7.80
2008,10,14,01,43,7.80
2008,10,14,01,44,7.80
2008,10,14,01,45,7.80
2008,10,14,01,46,7.80
2008,10,14,01,47,7.80
2008,10,14,01,48,7.80
2008,10,14,01,49,7.80
2008,10,14,01,50,7.80
2008,10,14,01,51,7.80
2008,10,14,01,52,7.80
2008,10,14,01,53,7.80
2008,10,14,01,54,7.80
2008,10,14,01,55,7.80
2008,10,14,01,56,7.80
2008,10,14,01,57,7.90
2008,10,14,01,58,7.90
2008,10,14,01,59,7.90
2008,10,14,02,00,7.90
2008,10,14,02,01,7.90
2008,10,14,02,02,7.80
2008,10,14,02,03,7.80
2008,10,14,02,04,7.80
2008,10,14,02,05,7.80
2008,10,14,02,06,7.70
2008,10,14,02,07,7.70
2008,10,14,02,08,7.60
2008,10,14,02,09,7.50
2008,10,14,02,10,7.50
2008,10,14,02,11,7.40
2008,10,14,02,12,7.40
2008,10,14,02,13,7.40
2008,10,14,02,14,7.30
2008,10,14,02,15,7.30
2008,10,14,02,16,7.30
2008,10,14,02,17,7.30
2008,10,14,02,18,7.30
2008,10,14,02,19,7.20
2008,10,14,02,20,7.20
2008,10,14,02,21,7.10
2008,10,14,02,22,7.10
2008,10,14,02,23,7.00
2008,10,14,02,24,7.00
2008,10,14,02,25,6.90
2008,10,14,02,26,6.90
2008,10,14,02,27,6.90
2008,10,14,02,28,6.90
2008,10,14,02,29,7.00
2008,10,14,02,30,7.00
2008,10,14,02,31,7.00
2008,10,14,02,32,7.10
2008,10,14,02,33,7.10
2008,10,14,02,34,7.20
2008,10,14,02,35,7.20
2008,10,14,02,36,7.20
2008,10,14,02,37,7.20
2008,10,14,02,38,7.20
2008,10,14,02,39,7.20
2008,10,14,02,40,7.20
2008,10,14,02,41,7.20
2008,10,14,02,42,7.20
2008,10,14,02,43,7.10
2008,10,14,02,44,7.10
2008,10,14,02,45,7.10
2008,10,14,02,46,7.10
2008,10,14,02,47,7.00
2008,10,14,02,48,7.00
2008,10,14,02,49,7.00
2008,10,14,02,50,7.00
2008,10,14,02,51,7.00
2008,10,14,02,52,6.90
2008,10,14,02,53,6.90
2008,10,14,02,54,6.90
2008,10,14,02,55,6.80
2008,10,14,02,56,6.80
2008,10,14,02,57,6.80
2008,10,14,02,58,6.80
2008,10,14,02,59,6.80
2008,10,14,03,00,6.80
2008,10,14,03,01,6.70
2008,10,14,03,02,6.60
2008,10,14,03,03,6.60
2008,10,14,03,04,6.50
2008,10,14,03,05,6.40
2008,10,14,03,06,6.40
2008,10,14,03,07,6.30
2008,10,14,03,08,6.30
2008,10,14,03,09,6.30
2008,10,14,03,10,6.30
2008,10,14,03,11,6.30
2008,10,14,03,12,6.20
2008,10,14,03,13,6.20
2008,10,14,03,14,6.20
2008,10,14,03,15,6.20
2008,10,14,03,16,6.10
2008,10,14,03,17,6.00
2008,10,14,03,18,6.00
2008,10,14,03,19,5.90
2008,10,14,03,20,5.90
2008,10,14,03,21,5.90
2008,10,14,03,22,5.80
2008,10,14,03,23,5.80
2008,10,14,03,24,5.70
2008,10,14,03,25,5.70
2008,10,14,03,26,5.70
2008,10,14,03,27,5.70
2008,10,14,03,28,5.70
2008,10,14,03,29,5.70
2008,10,14,03,30,5.70
2008,10,14,03,31,5.70
2008,10,14,03,32,5.70
2008,10,14,03,33,5.70
2008,10,14,03,34,5.70
2008,10,14,03,35,5.70
2008,10,14,03,36,5.70
2008,10,14,03,37,5.70
2008,10,14,03,38,5.70
2008,10,14,03,39,5.70
2008,10,14,03,40,5.60
2008,10,14,03,41,5.60
2008,10,14,03,42,5.60
2008,10,14,03,43,5.50
2008,10,14,03,44,5.50
2008,10,14,03,45,5.50
2008,10,14,03,46,5.40
2008,10,14,03,47,5.30
2008,10,14,03,48,5.30
2008,10,14,03,49,5.30
2008,10,14,03,50,5.30
2008,10,14,03,51,5.30
2008,10,14,03,52,5.30
2008,10,14,03,53,5.30
2008,10,14,03,54,5.30
2008,10,14,03,55,5.30
2008,10,14,03,56,5.30
2008,10,14,03,57,5.20
2008,10,14,03,58,5.20
2008,10,14,03,59,5.20
2008,10,14,04,00,5.10
2008,10,14,04,01,5.10
2008,10,14,04,02,5.10
2008,10,14,04,03,5.10
2008,10,14,04,04,5.10
2008,10,14,04,05,5.10
2008,10,14,04,06,5.10
2008,10,14,04,07,5.10
2008,10,14,04,08,5.10
2008,10,14,04,09,5.20
2008,10,14,04,10,5.30
2008,10,14,04,11,5.30
2008,10,14,04,12,5.30
2008,10,14,04,13,5.30
2008,10,14,04,14,5.40
2008,10,14,04,15,5.40
2008,10,14,04,16,5.40
2008,10,14,04,17,5.40
2008,10,14,04,18,5.40
2008,10,14,04,19,5.40
2008,10,14,04,20,5.40
2008,10,14,04,21,5.50
2008,10,14,04,22,5.50
2008,10,14,04,23,5.50
2008,10,14,04,24,5.50
2008,10,14,04,25,5.50
2008,10,14,04,26,5.50
2008,10,14,04,27,5.40
2008,10,14,04,28,5.40
2008,10,14,04,29,5.40
2008,10,14,04,30,5.40
2008,10,14,04,31,5.40
2008,10,14,04,32,5.40
2008,10,14,04,33,5.40
2008,10,14,04,34,5.40
2008,10,14,04,35,5.50
2008,10,14,04,36,5.50
2008,10,14,04,37,5.50
2008,10,14,04,38,5.50
2008,10,14,04,39,5.50
2008,10,14,04,40,5.50
2008,10,14,04,41,5.50
2008,10,14,04,42,5.50
2008,10,14,04,43,5.50
2008,10,14,04,44,5.50
2008,10,14,04,45,5.40
2008,10,14,04,46,5.40
2008,10,14,04,47,5.40
2008,10,14,04,48,5.40
2008,10,14,04,49,5.30
2008,10,14,04,50,5.30
2008,10,14,04,51,5.30
2008,10,14,04,52,5.30
2008,10,14,04,53,5.30
2008,10,14,04,54,5.30
2008,10,14,04,55,5.30
2008,10,14,04,56,5.30
2008,10,14,04,57,5.30
2008,10,14,04,58,5.30
2008,10,14,04,59,5.30
2008,10,14,05,00,5.30
2008,10,14,05,01,5.30
2008,10,14,05,02,5.30
2008,10,14,05,03,5.30
2008,10,14,05,04,5.30
2008,10,14,05,05,5.30
2008,10,14,05,06,5.30
2008,10,14,05,07,5.30
2008,10,14,05,08,5.30
2008,10,14,05,09,5.30
2008,10,14,05,10,5.30
2008,10,14,05,11,5.30
2008,10,14,05,12,5.30
2008,10,14,05,13,5.30
2008,10,14,05,14,5.30
2008,10,14,05,15,5.30
2008,10,14,05,16,5.30
2008,10,14,05,17,5.30
2008,10,14,05,18,5.20
2008,10,14,05,19,5.20
2008,10,14,05,20,5.20
2008,10,14,05,21,5.10
2008,10,14,05,22,5.10
2008,10,14,05,23,5.20
2008,10,14,05,24,5.20
2008,10,14,05,25,5.20
2008,10,14,05,26,5.20
2008,10,14,05,27,5.20
2008,10,14,05,28,5.20
2008,10,14,05,29,5.20
2008,10,14,05,30,5.10
2008,10,14,05,31,5.10
2008,10,14,05,32,5.10
2008,10,14,05,33,5.10
2008,10,14,05,34,5.10
2008,10,14,05,35,5.10
2008,10,14,05,36,5.10
2008,10,14,05,37,5.00
2008,10,14,05,38,4.90
2008,10,14,05,39,4.90
2008,10,14,05,40,4.90
2008,10,14,05,41,4.90
2008,10,14,05,42,4.90
2008,10,14,05,43,5.00
2008,10,14,05,44,5.10
2008,10,14,05,45,5.10
2008,10,14,05,46,5.10
2008,10,14,05,47,5.10
2008,10,14,05,48,5.10
2008,10,14,05,49,5.10
2008,10,14,05,50,5.10
2008,10,14,05,51,5.10
2008,10,14,05,52,5.10
2008,10,14,05,53,5.10
2008,10,14,05,54,5.10
2008,10,14,05,55,5.20
2008,10,14,05,56,5.20
2008,10,14,05,57,5.10
2008,10,14,05,58,5.10
2008,10,14,05,59,5.10
2008,10,14,06,00,5.10
2008,10,14,06,01,5.10
2008,10,14,06,02,5.10
2008,10,14,06,03,5.10
2008,10,14,06,04,5.10
2008,10,14,06,05,5.10
2008,10,14,06,06,5.10
2008,10,14,06,07,5.10
2008,10,14,06,08,5.10
2008,10,14,06,09,5.10
2008,10,14,06,10,5.00
2008,10,14,06,11,4.90
2008,10,14,06,12,4.90
2008,10,14,06,13,4.90
2008,10,14,06,14,4.90
2008,10,14,06,15,4.90
2008,10,14,06,16,4.90
2008,10,14,06,17,4.80
2008,10,14,06,18,4.80
2008,10,14,06,19,4.80
2008,10,14,06,20,4.80
2008,10,14,06,21,4.80
2008,10,14,06,22,4.80
2008,10,14,06,23,4.80
2008,10,14,06,24,4.90
2008,10,14,06,25,4.90
2008,10,14,06,26,4.90
2008,10,14,06,27,4.90
2008,10,14,06,28,4.80
2008,10,14,06,29,4.80
2008,10,14,06,30,4.80
2008,10,14,06,31,4.80
2008,10,14,06,32,4.80
2008,10,14,06,33,4.80
2008,10,14,06,34,4.80
2008,10,14,06,35,4.80
2008,10,14,06,36,4.90
2008,10,14,06,37,4.90
2008,10,14,06,38,4.90
2008,10,14,06,39,4.90
2008,10,14,06,40,4.90
2008,10,14,06,41,4.90
2008,10,14,06,42,5.00
2008,10,14,06,43,5.10
2008,10,14,06,44,5.10
2008,10,14,06,45,5.10
2008,10,14,06,46,5.10
2008,10,14,06,47,5.10
2008,10,14,06,48,5.10
2008,10,14,06,49,5.10
2008,10,14,06,50,5.10
2008,10,14,06,51,5.10
2008,10,14,06,52,5.10
2008,10,14,06,53,5.10
2008,10,14,06,54,5.10
2008,10,14,06,55,5.10
2008,10,14,06,56,5.10
2008,10,14,06,57,5.10
2008,10,14,06,58,5.10
2008,10,14,06,59,5.10
2008,10,14,07,00,5.10
2008,10,14,07,01,5.10
2008,10,14,07,02,5.10
2008,10,14,07,03,5.20
2008,10,14,07,04,5.20
2008,10,14,07,05,5.20
2008,10,14,07,06,5.20
2008,10,14,07,07,5.20
2008,10,14,07,08,5.20
2008,10,14,07,09,5.20
2008,10,14,07,10,5.10
2008,10,14,07,11,5.10
2008,10,14,07,12,5.10
2008,10,14,07,13,5.10
2008,10,14,07,14,5.10
2008,10,14,07,15,5.10
2008,10,14,07,16,5.10
2008,10,14,07,17,5.10
2008,10,14,07,18,5.10
2008,10,14,07,19,5.10
2008,10,14,07,20,5.20
2008,10,14,07,21,5.20
2008,10,14,07,22,5.20
2008,10,14,07,23,5.20
2008,10,14,07,24,5.20
2008,10,14,07,25,5.20
2008,10,14,07,26,5.20
2008,10,14,07,27,5.20
2008,10,14,07,28,5.20
2008,10,14,07,29,5.20
2008,10,14,07,30,5.20
2008,10,14,07,31,5.20
2008,10,14,07,32,5.20
2008,10,14,07,33,5.20
2008,10,14,07,34,5.20
2008,10,14,07,35,5.20
2008,10,14,07,36,5.20
2008,10,14,07,37,5.20
2008,10,14,07,38,5.20
2008,10,14,07,39,5.20
2008,10,14,07,40,5.20
2008,10,14,07,41,5.20
2008,10,14,07,42,5.30
2008,10,14,07,43,5.30
2008,10,14,07,44,5.30
2008,10,14,07,45,5.30
2008,10,14,07,46,5.30
2008,10,14,07,47,5.30
2008,10,14,07,48,5.30
2008,10,14,07,49,5.30
2008,10,14,07,50,5.30
2008,10,14,07,51,5.30
2008,10,14,07,52,5.30
2008,10,14,07,53,5.30
2008,10,14,07,54,5.30
2008,10,14,07,55,5.30
2008,10,14,07,56,5.20
2008,10,14,07,57,5.20
2008,10,14,07,58,5.10
2008,10,14,07,59,5.10
2008,10,14,08,00,5.10
2008,10,14,08,01,5.10
2008,10,14,08,02,5.10
2008,10,14,08,03,5.10
2008,10,14,08,04,5.10
2008,10,14,08,05,5.10
2008,10,14,08,06,5.10
2008,10,14,08,07,5.10
2008,10,14,08,08,5.10
2008,10,14,08,09,5.10
2008,10,14,08,10,5.10
2008,10,14,08,11,5.10
2008,10,14,08,12,5.10
2008,10,14,08,13,5.10
2008,10,14,08,14,5.20
2008,10,14,08,15,5.30
2008,10,14,08,16,5.30
2008,10,14,08,17,5.40
2008,10,14,08,18,5.50
2008,10,14,08,19,5.50
2008,10,14,08,20,5.60
2008,10,14,08,21,5.60
2008,10,14,08,22,5.70
2008,10,14,08,23,5.70
2008,10,14,08,24,5.80
2008,10,14,08,25,5.90
2008,10,14,08,26,5.90
2008,10,14,08,27,6.00
2008,10,14,08,28,6.00
2008,10,14,08,29,6.10
2008,10,14,08,30,6.20
2008,10,14,08,31,6.20
2008,10,14,08,32,6.20
2008,10,14,08,33,6.30
2008,10,14,08,34,6.30
2008,10,14,08,35,6.40
2008,10,14,08,36,6.40
2008,10,14,08,37,6.40
2008,10,14,08,38,6.40
2008,10,14,08,39,6.40
2008,10,14,08,40,6.40
2008,10,14,08,41,6.40
2008,10,14,08,42,6.40
2008,10,14,08,43,6.50
2008,10,14,08,44,6.60
2008,10,14,08,45,6.60
2008,10,14,08,46,6.60
2008,10,14,08,47,6.60
2008,10,14,08,48,6.60
2008,10,14,08,49,6.60
2008,10,14,08,50,6.70
2008,10,14,08,51,6.70
2008,10,14,08,52,6.70
2008,10,14,08,53,6.70
2008,10,14,08,54,6.80
2008,10,14,08,55,6.80
2008,10,14,08,56,6.80
2008,10,14,08,57,6.80
2008,10,14,08,58,6.80
2008,10,14,08,59,6.90
2008,10,14,09,00,6.90
2008,10,14,09,01,7.00
2008,10,14,09,02,7.00
2008,10,14,09,03,7.10
2008,10,14,09,04,7.10
2008,10,14,09,05,7.10
2008,10,14,09,06,7.10
2008,10,14,09,07,7.20
2008,10,14,09,08,7.20
2008,10,14,09,09,7.30
2008,10,14,09,10,7.30
2008,10,14,09,11,7.30
2008,10,14,09,12,7.40
2008,10,14,09,13,7.40
2008,10,14,09,14,7.40
2008,10,14,09,15,7.50
2008,10,14,09,16,7.50
2008,10,14,09,17,7.60
2008,10,14,09,18,7.70
2008,10,14,09,19,7.80
2008,10,14,09,20,7.80
2008,10,14,09,21,7.90
2008,10,14,09,22,8.00
2008,10,14,09,23,8.10
2008,10,14,09,24,8.20
2008,10,14,09,25,8.20
2008,10,14,09,26,8.20
2008,10,14,09,27,8.20
2008,10,14,09,28,8.30
2008,10,14,09,29,8.30
2008,10,14,09,30,8.40
2008,10,14,09,31,8.50
2008,10,14,09,32,8.50
2008,10,14,09,33,8.60
2008,10,14,09,34,8.70
2008,10,14,09,35,8.70
2008,10,14,09,36,8.70
2008,10,14,09,37,8.70
2008,10,14,09,38,8.70
2008,10,14,09,39,8.70
2008,10,14,09,40,8.70
2008,10,14,09,41,8.80
2008,10,14,09,42,8.80
2008,10,14,09,43,8.90
2008,10,14,09,44,8.90
2008,10,14,09,45,9.00
2008,10,14,09,46,9.00
2008,10,14,09,47,9.00
2008,10,14,09,48,9.10
2008,10,14,09,49,9.20
2008,10,14,09,50,9.20
2008,10,14,09,51,9.30
2008,10,14,09,52,9.40
2008,10,14,09,53,9.50
2008,10,14,09,54,9.60
2008,10,14,09,55,9.70
2008,10,14,09,56,9.80
2008,10,14,09,57,9.90
2008,10,14,09,58,9.90
2008,10,14,09,59,10.00
2008,10,14,10,00,10.10
2008,10,14,10,01,10.10
2008,10,14,10,02,10.20
2008,10,14,10,03,10.20
2008,10,14,10,04,10.20
2008,10,14,10,05,10.20
2008,10,14,10,06,10.30
2008,10,14,10,07,10.30
2008,10,14,10,08,10.40
2008,10,14,10,09,10.40
2008,10,14,10,10,10.30
2008,10,14,10,11,10.30
2008,10,14,10,12,10.30
2008,10,14,10,13,10.30
2008,10,14,10,14,10.30
2008,10,14,10,15,10.30
2008,10,14,10,16,10.30
2008,10,14,10,17,10.40
2008,10,14,10,18,10.40
2008,10,14,10,19,10.40
2008,10,14,10,20,10.40
2008,10,14,10,21,10.30
2008,10,14,10,22,10.30
2008,10,14,10,23,10.20
2008,10,14,10,24,10.10
2008,10,14,10,25,10.00
2008,10,14,10,26,9.90
2008,10,14,10,27,9.90
2008,10,14,10,28,9.90
2008,10,14,10,29,9.80
2008,10,14,10,30,9.80
2008,10,14,10,31,9.80
2008,10,14,10,32,9.90
2008,10,14,10,33,9.90
2008,10,14,10,34,9.90
2008,10,14,10,35,9.90
2008,10,14,10,36,9.90
2008,10,14,10,37,10.00
2008,10,14,10,38,10.10
2008,10,14,10,39,10.10
2008,10,14,10,40,10.10
2008,10,14,10,41,10.10
2008,10,14,10,42,10.10
2008,10,14,10,43,10.20
2008,10,14,10,44,10.20
2008,10,14,10,45,10.20
2008,10,14,10,46,10.30
2008,10,14,10,47,10.30
2008,10,14,10,48,10.30
2008,10,14,10,49,10.30
2008,10,14,10,50,10.30
2008,10,14,10,51,10.30
2008,10,14,10,52,10.30
2008,10,14,10,53,10.20
2008,10,14,10,54,10.20
2008,10,14,10,55,10.20
2008,10,14,10,56,10.20
2008,10,14,10,57,10.20
2008,10,14,10,58,10.20
2008,10,14,10,59,10.20
2008,10,14,11,00,10.30
2008,10,14,11,01,10.40
2008,10,14,11,02,10.40
2008,10,14,11,03,10.40
2008,10,14,11,04,10.40
2008,10,14,11,05,10.50
2008,10,14,11,06,10.60
2008,10,14,11,07,10.60
2008,10,14,11,08,10.70
2008,10,14,11,09,10.80
2008,10,14,11,10,10.90
2008,10,14,11,11,11.00
2008,10,14,11,12,11.10
2008,10,14,11,13,11.20
2008,10,14,11,14,11.20
2008,10,14,11,15,11.20
2008,10,14,11,16,11.20
2008,10,14,11,17,11.20
2008,10,14,11,18,11.20
2008,10,14,11,19,11.20
2008,10,14,11,20,11.10
2008,10,14,11,21,11.10
2008,10,14,11,22,11.10
2008,10,14,11,23,11.00
2008,10,14,11,24,10.90
2008,10,14,11,25,10.90
2008,10,14,11,26,11.00
2008,10,14,11,27,11.00
2008,10,14,11,28,10.90
2008,10,14,11,29,10.90
2008,10,14,11,30,10.90
2008,10,14,11,31,10.90
2008,10,14,11,32,11.00
2008,10,14,11,33,11.10
2008,10,14,11,34,11.10
2008,10,14,11,35,11.00
2008,10,14,11,36,10.90
2008,10,14,11,37,10.90
2008,10,14,11,38,10.80
2008,10,14,11,39,10.80
2008,10,14,11,40,10.70
2008,10,14,11,41,10.70
2008,10,14,11,42,10.70
2008,10,14,11,43,10.80
2008,10,14,11,44,10.80
2008,10,14,11,45,10.90
2008,10,14,11,46,10.90
2008,10,14,11,47,10.90
2008,10,14,11,48,10.90
2008,10,14,11,49,11.00
2008,10,14,11,50,11.10
2008,10,14,11,51,11.10
2008,10,14,11,52,11.20
2008,10,14,11,53,11.20
2008,10,14,11,54,11.30
2008,10,14,11,55,11.30
2008,10,14,11,56,11.40
2008,10,14,11,57,11.40
2008,10,14,11,58,11.40
2008,10,14,11,59,11.50
2008,10,14,12,00,11.60
2008,10,14,12,01,11.60
2008,10,14,12,02,11.60
2008,10,14,12,03,11.60
2008,10,14,12,04,11.60
2008,10,14,12,05,11.60
2008,10,14,12,06,11.50
2008,10,14,12,07,11.40
2008,10,14,12,08,11.40
2008,10,14,12,09,11.40
2008,10,14,12,10,11.30
2008,10,14,12,11,11.30
2008,10,14,12,12,11.30
2008,10,14,12,13,11.30
2008,10,14,12,14,11.30
2008,10,14,12,15,11.30
2008,10,14,12,16,11.40
2008,10,14,12,17,11.40
2008,10,14,12,18,11.40
2008,10,14,12,19,11.60
2008,10,14,12,20,11.60
2008,10,14,12,21,11.70
2008,10,14,12,22,11.70
2008,10,14,12,23,11.70
2008,10,14,12,24,11.70
2008,10,14,12,25,11.70
2008,10,14,12,26,11.70
2008,10,14,12,27,11.70
2008,10,14,12,28,11.70
2008,10,14,12,29,11.70
2008,10,14,12,30,11.70
2008,10,14,12,31,11.60
2008,10,14,12,32,11.70
2008,10,14,12,33,11.70
2008,10,14,12,34,11.70
2008,10,14,12,35,11.70
2008,10,14,12,36,11.70
2008,10,14,12,37,11.70
2008,10,14,12,38,11.70
2008,10,14,12,39,11.70
2008,10,14,12,40,11.70
2008,10,14,12,41,11.70
2008,10,14,12,42,11.60
2008,10,14,12,43,11.60
2008,10,14,12,44,11.50
2008,10,14,12,45,11.40
2008,10,14,12,46,11.40
2008,10,14,12,47,11.40
2008,10,14,12,48,11.40
2008,10,14,12,49,11.40
2008,10,14,12,50,11.40
2008,10,14,12,51,11.30
2008,10,14,12,52,11.30
2008,10,14,12,53,11.30
2008,10,14,12,54,11.30
2008,10,14,12,55,11.40
2008,10,14,12,56,11.40
2008,10,14,12,57,11.40
2008,10,14,12,58,11.40
2008,10,14,12,59,11.40
2008,10,14,13,00,11.40
2008,10,14,13,01,11.40
2008,10,14,13,02,11.40
2008,10,14,13,03,11.50
2008,10,14,13,04,11.60
2008,10,14,13,05,11.60
2008,10,14,13,06,11.60
2008,10,14,13,07,11.60
2008,10,14,13,08,11.70
2008,10,14,13,09,11.70
2008,10,14,13,10,11.60
2008,10,14,13,11,11.60
2008,10,14,13,12,11.40
2008,10,14,13,13,11.40
2008,10,14,13,14,11.40
2008,10,14,13,15,11.30
2008,10,14,13,16,11.20
2008,10,14,13,17,11.20
2008,10,14,13,18,11.20
2008,10,14,13,19,11.20
2008,10,14,13,20,11.20
2008,10,14,13,21,11.30
2008,10,14,13,22,11.30
2008,10,14,13,23,11.20
2008,10,14,13,24,11.20
2008,10,14,13,25,11.20
2008,10,14,13,26,11.10
2008,10,14,13,27,11.10
2008,10,14,13,28,11.10
2008,10,14,13,29,11.10
2008,10,14,13,30,11.20
2008,10,14,13,31,11.20
2008,10,14,13,32,11.30
2008,10,14,13,33,11.30
2008,10,14,13,34,11.40
2008,10,14,13,35,11.30
2008,10,14,13,36,11.30
2008,10,14,13,37,11.40
2008,10,14,13,38,11.40
2008,10,14,13,39,11.40
2008,10,14,13,40,11.40
2008,10,14,13,41,11.40
2008,10,14,13,42,11.40
2008,10,14,13,43,11.40
2008,10,14,13,44,11.40
2008,10,14,13,45,11.50
2008,10,14,13,46,11.60
2008,10,14,13,47,11.60
2008,10,14,13,48,11.60
2008,10,14,13,49,11.60
2008,10,14,13,50,11.60
2008,10,14,13,51,11.60
2008,10,14,13,52,11.60
2008,10,14,13,53,11.40
2008,10,14,13,54,11.40
2008,10,14,13,55,11.40
2008,10,14,13,56,11.40
2008,10,14,13,57,11.40
2008,10,14,13,58,11.40
2008,10,14,13,59,11.40
2008,10,14,14,00,11.30
2008,10,14,14,01,11.20
2008,10,14,14,02,11.20
2008,10,14,14,03,11.10
2008,10,14,14,04,11.10
2008,10,14,14,05,11.10
2008,10,14,14,06,11.00
2008,10,14,14,07,10.90
2008,10,14,14,08,10.90
2008,10,14,14,09,10.90
2008,10,14,14,10,10.90
2008,10,14,14,11,10.90
2008,10,14,14,12,10.90
2008,10,14,14,13,10.90
2008,10,14,14,14,10.90
2008,10,14,14,15,10.90
2008,10,14,14,16,10.90
2008,10,14,14,17,10.90
2008,10,14,14,18,10.90
2008,10,14,14,19,10.90
2008,10,14,14,20,10.90
2008,10,14,14,21,10.90
2008,10,14,14,22,11.00
2008,10,14,14,23,11.10
2008,10,14,14,24,11.10
2008,10,14,14,25,11.10
2008,10,14,14,26,11.10
2008,10,14,14,27,11.10
2008,10,14,14,28,11.10
2008,10,14,14,29,11.20
2008,10,14,14,30,11.20
2008,10,14,14,31,11.20
2008,10,14,14,32,11.10
2008,10,14,14,33,11.10
2008,10,14,14,34,11.10
2008,10,14,14,35,11.10
2008,10,14,14,36,11.10
2008,10,14,14,37,11.10
2008,10,14,14,38,11.20
2008,10,14,14,39,11.10
2008,10,14,14,40,11.20
2008,10,14,14,41,11.20
2008,10,14,14,42,11.20
2008,10,14,14,43,11.20
2008,10,14,14,44,11.20
2008,10,14,14,45,11.30
2008,10,14,14,46,11.30
2008,10,14,14,47,11.20
2008,10,14,14,48,11.20
2008,10,14,14,49,11.20
2008,10,14,14,50,11.20
2008,10,14,14,51,11.30
2008,10,14,14,52,11.30
2008,10,14,14,53,11.30
2008,10,14,14,54,11.30
2008,10,14,14,55,11.40
2008,10,14,14,56,11.40
2008,10,14,14,57,11.40
2008,10,14,14,58,11.40
2008,10,14,14,59,11.30
2008,10,14,15,00,11.30
2008,10,14,15,01,11.20
2008,10,14,15,02,11.10
2008,10,14,15,03,11.10
2008,10,14,15,04,11.10
2008,10,14,15,05,11.00
2008,10,14,15,06,10.90
2008,10,14,15,07,10.90
2008,10,14,15,08,10.90
2008,10,14,15,09,10.90
2008,10,14,15,10,10.90
2008,10,14,15,11,10.90
2008,10,14,15,12,11.00
2008,10,14,15,13,11.10
2008,10,14,15,14,11.10
2008,10,14,15,15,11.10
2008,10,14,15,16,11.10
2008,10,14,15,17,11.20
2008,10,14,15,18,11.20
2008,10,14,15,19,11.20
2008,10,14,15,20,11.20
2008,10,14,15,21,11.20
2008,10,14,15,22,11.20
2008,10,14,15,23,11.20
2008,10,14,15,24,11.20
2008,10,14,15,25,11.20
2008,10,14,15,26,11.30
2008,10,14,15,27,11.30
2008,10,14,15,28,11.30
2008,10,14,15,29,11.30
2008,10,14,15,30,11.20
2008,10,14,15,31,11.20
2008,10,14,15,32,11.20
2008,10,14,15,33,11.20
2008,10,14,15,34,11.10
2008,10,14,15,35,11.10
2008,10,14,15,36,11.10
2008,10,14,15,37,11.10
2008,10,14,15,38,11.10
2008,10,14,15,39,11.10
2008,10,14,15,40,11.10
2008,10,14,15,41,11.10
2008,10,14,15,42,11.10
2008,10,14,15,43,11.10
2008,10,14,15,44,11.10
2008,10,14,15,45,11.10
2008,10,14,15,46,11.10
2008,10,14,15,47,11.10
2008,10,14,15,48,11.20
2008,10,14,15,49,11.20
2008,10,14,15,50,11.20
2008,10,14,15,51,11.20
2008,10,14,15,52,11.20
2008,10,14,15,53,11.30
2008,10,14,15,54,11.30
2008,10,14,15,55,11.30
2008,10,14,15,56,11.30
2008,10,14,15,57,11.30
2008,10,14,15,58,11.30
2008,10,14,15,59,11.30
2008,10,14,16,00,11.30
2008,10,14,16,01,11.30
2008,10,14,16,02,11.30
2008,10,14,16,03,11.30
2008,10,14,16,04,11.30
2008,10,14,16,05,11.30
2008,10,14,16,06,11.30
2008,10,14,16,07,11.30
2008,10,14,16,08,11.30
2008,10,14,16,09,11.30
2008,10,14,16,10,11.30
2008,10,14,16,11,11.20
2008,10,14,16,12,11.20
2008,10,14,16,13,11.20
2008,10,14,16,14,11.30
2008,10,14,16,15,11.20
2008,10,14,16,16,11.20
2008,10,14,16,17,11.20
2008,10,14,16,18,11.10
2008,10,14,16,19,11.10
2008,10,14,16,20,11.10
2008,10,14,16,21,11.10
2008,10,14,16,22,11.10
2008,10,14,16,23,11.10
2008,10,14,16,24,11.10
2008,10,14,16,25,11.10
2008,10,14,16,26,11.10
2008,10,14,16,27,11.10
2008,10,14,16,28,11.10
2008,10,14,16,29,11.10
2008,10,14,16,30,11.10
2008,10,14,16,31,11.10
2008,10,14,16,32,11.10
2008,10,14,16,33,11.10
2008,10,14,16,34,11.10
2008,10,14,16,35,10.90
2008,10,14,16,36,10.90
2008,10,14,16,37,10.90
2008,10,14,16,38,10.90
2008,10,14,16,39,10.80
2008,10,14,16,40,10.80
2008,10,14,16,41,10.80
2008,10,14,16,42,10.80
2008,10,14,16,43,10.80
2008,10,14,16,44,10.80
2008,10,14,16,45,10.80
2008,10,14,16,46,10.80
2008,10,14,16,47,10.80
2008,10,14,16,48,10.90
2008,10,14,16,49,10.90
2008,10,14,16,50,10.90
2008,10,14,16,51,10.90
2008,10,14,16,52,10.90
2008,10,14,16,53,10.80
2008,10,14,16,54,10.80
2008,10,14,16,55,10.80
2008,10,14,16,56,10.80
2008,10,14,16,57,10.80
2008,10,14,16,58,10.80
2008,10,14,16,59,10.80
2008,10,14,17,00,10.80
2008,10,14,17,01,10.80
2008,10,14,17,02,10.80
2008,10,14,17,03,10.70
2008,10,14,17,04,10.70
2008,10,14,17,05,10.70
2008,10,14,17,06,10.70
2008,10,14,17,07,10.70
2008,10,14,17,08,10.70
2008,10,14,17,09,10.70
2008,10,14,17,10,10.70
2008,10,14,17,11,10.70
2008,10,14,17,12,10.70
2008,10,14,17,13,10.70
2008,10,14,17,14,10.60
2008,10,14,17,15,10.60
2008,10,14,17,16,10.60
2008,10,14,17,17,10.60
2008,10,14,17,18,10.60
2008,10,14,17,19,10.60
2008,10,14,17,20,10.60
2008,10,14,17,21,10.60
2008,10,14,17,22,10.60
2008,10,14,17,23,10.60
2008,10,14,17,24,10.60
2008,10,14,17,25,10.60
2008,10,14,17,26,10.60
2008,10,14,17,27,10.60
2008,10,14,17,28,10.60
2008,10,14,17,29,10.60
2008,10,14,17,30,10.60
2008,10,14,17,31,10.50
2008,10,14,17,32,10.40
2008,10,14,17,33,10.40
2008,10,14,17,34,10.40
2008,10,14,17,35,10.40
2008,10,14,17,36,10.40
2008,10,14,17,37,10.30
2008,10,14,17,38,10.30
2008,10,14,17,39,10.20
2008,10,14,17,40,10.20
2008,10,14,17,41,10.20
2008,10,14,17,42,10.10
2008,10,14,17,43,10.10
2008,10,14,17,44,10.10
2008,10,14,17,45,10.10